THORAD DELTA 1 DEB, 42598

Orbit data source: Space-Track

THORAD DELTA 1 DEB, 42598 is space debris in SSO originally from a launch on Fri, 15 Nov 1974 UTC launched from the Air Force Western Test Range (AFWTR). Debris objects in space refer to the collection of defunct objects orbiting the Earth. Examples of debris include non-operational satellites, rocket bodies, and fragments generated from explosions, collisions, or faulty payload assembly.

Loading next visibility...
Identifier
42598, 1974-089FP
Orbit
SSO
Country
Flag of USUS
Related business
Manufacturer
Unknown
Mission
Spacecraft
Bus & Motor
Unknown
Mass
Unknown
Launch date (UTC)
1974-11-15 (52 years ago)
Launch vehicle
Unknown
Launch site
Air Force Western Test Range (AFWTR)
Object type
Payload
Rocket body
Debris
Shape & HBR
Unknown shape, 0.1 m
Radar Cross Section
Medium (>0.1 m² and <1 m²)

Expand to show TLE details & history
Last TLE update: 1 week ago

TLE from 1 week ago
0 THORAD DELTA 1 DEB
1 42598U 74089FP  26163.89232392  .00000385  00000-0  29643-2 0  9994
2 42598 102.7899 194.8406 0177939 240.4052 117.9176 12.43020634569031
Epoch: 2026-06-12T21:24Z
TLE epoch observation values (Epoch: 2026-06-12T21:24:56.786Z)
Latitude
-0.00002°
Longitude
-27.61125°
Altitude
1,563.859 km
Speed
7.055 km/s
True Right ascension
12h 59m 21s
True Declination
0° 00' 00"
Sunlit
Object was in daylight at epoch
Visualization orbit readout
Latitude
Unknown
Longitude
Unknown
Altitude
Unknown
Speed
Unknown
Apparent Right ascension
Unknown
Apparent Declination
Unknown
Sunlit
N/A
Visualization observer readout
Local Sidereal Time
23:19:36
Azimuth
Unknown
Elevation
Unknown
Doppler factor
Unknown
Orbital elements
Apogee altitude
1,631.473 km
Perigee altitude
1,351.412 km
Semi-major axis
7,869.579 km
Eccentricity
0.01779
Inclination
102.7899°
RAAN
194.8406°
Arg. of periapsis
240.4052°
True anomaly
119.70047°
Mean anomaly
117.9176°
Eccentric anomaly
118.81091°
Mean motion
3.10897 °/min
Orbital period
115.79 mins
BSTAR
0.0029643
Loading maneuver chart data...
Computing Atmospheric mass density...

Documentation

Showing up to 5 results
|